Regional Weather Roundup
Issued by NWS

Home | Current Version | Previous Version | Text Only | Print | Product List | Glossary On
Versions: 1 2 3 4 5 6 7 8 9 10 11 12 13 14 15 16 17 18 19 20 21 22 23 24 25 26 27 28 29 30 31 32 33 34 35 36 37 38 39 40 41 42 43 44 45 46 47 48 49 50
000
ASUS43 KOAX 310010
RWRNE

WEATHER ROUNDUP FOR NEBRASKA
NATIONAL WEATHER SERVICE OMAHA NE
700 PM CDT MON MAR 30 2015

NOTES: SATELLITE DATA IS BEING USED TO AUGMENT CLOUD COVER ABOVE
       12000 FEET.
       "FAIR" INDICATES FEW OR NO CLOUDS BELOW 12,000 FEET WITH NO
       SIGNIFICANT WEATHER AND/OR OBSTRUCTIONS TO VISIBILITY.

  * THESE STATIONS DO NOT REPORT WEATHER SUCH AS RAIN...SNOW OR FOG.

NEZ001>004-019>022-054>056-310100-
NEBRASKA PANHANDLE

CITY           SKY/WX    TMP DP  RH WIND       PRES   REMARKS
SCOTTSBLUFF    SUNNY     70  24  17 N10G17    30.03F
6HR MIN TEMP:  69; 6HR MAX TEMP:  72;

ALLIANCE       MOSUNNY   66  26  22 NW12      30.02F
6HR MIN TEMP:  66; 6HR MAX TEMP:  71;

CHADRON        SUNNY     69  27  20 NW15G23   30.00S
6HR MIN TEMP:  65; 6HR MAX TEMP:  71;

KIMBALL        SUNNY     66  21  18 NE7       30.04S
SIDNEY         SUNNY     69  26  20 NE12      30.05S
6HR MIN TEMP:  68; 6HR MAX TEMP:  71;

$$

NEZ057>060-069>072-079>082-310100-
SOUTHWEST NEBRASKA

CITY           SKY/WX    TMP DP  RH WIND       PRES   REMARKS
NORTH PLATTE   MOSUNNY   72  20  14 N10       29.98R
6HR MIN TEMP:  67; 6HR MAX TEMP:  78;

IMPERIAL         N/A     74  22  14 N16       30.00S
6HR MIN TEMP:  71; 6HR MAX TEMP:  77;

LEXINGTON      SUNNY     76  20  12 N9        29.95S
MCCOOK         SUNNY     78  16   9 NW14      29.95S
6HR MIN TEMP:  72; 6HR MAX TEMP:  81;

OGALLALA       SUNNY     72  24  16 N13       30.02R
$$

NEZ005>010-023>029-035>040-094-310100-
NORTH CENTRAL NEBRASKA

CITY           SKY/WX    TMP DP  RH WIND       PRES   REMARKS
VALENTINE      SUNNY     69  25  19 NW17G24   29.98S
6HR MIN TEMP:  69; 6HR MAX TEMP:  73;

AINSWORTH      SUNNY     69  26  20 NW20      29.98R
BROKEN BOW     MOSUNNY   74  25  16 N15       29.96R
6HR MIN TEMP:  70; 6HR MAX TEMP:  79;

O`NEILL        CLEAR     70  28  20 NW18      29.95R
ORD            MOSUNNY   73  23  15 NW16      29.93S
6HR MIN TEMP:  68; 6HR MAX TEMP:  77;

THEDFORD       SUNNY     70  29  22 N17       30.01R
$$

NEZ041-046>049-061>064-073>077-083>087-310100-
SOUTH CENTRAL NEBRASKA

CITY           SKY/WX    TMP DP  RH WIND       PRES   REMARKS
GRAND ISLAND   MOCLDY    74  24  15 N9        29.93S
6HR MIN TEMP:  70; 6HR MAX TEMP:  77;

AURORA         MOCLDY    73  23  15 NW9       29.92S
HASTINGS       PTCLDY    74  24  15 N13       29.93R
6HR MIN TEMP:  70; 6HR MAX TEMP:  78;

HEBRON         CLEAR     76  25  14 NW3       29.90S
HOLDREGE       SUNNY     75  20  12 N7        29.94S
KEARNEY *        N/A    N/A N/A N/A MISG        N/A
YORK           MOCLDY    72  30  21 NW5       29.92S
$$

NEZ011>018-030>034-042>045-310100-
NORTHEAST NEBRASKA

CITY           SKY/WX    TMP DP  RH WIND       PRES   REMARKS
NORFOLK        CLEAR     73  29  19 NW18      29.89R
6HR MIN TEMP:  70; 6HR MAX TEMP:  78;

ALBION         CLEAR     73  25  17 NW15G23   29.92S
BLAIR          PTCLDY    75  26  16 W13G20    29.87S
COLUMBUS *     PTCLDY    73  25  16 NW16G22   29.91S
FREMONT        PTCLDY    75  27  17 W12       29.88R
TEKAMAH        CLEAR     77  26  15 NW18G29   29.85R
6HR MIN TEMP:  74; 6HR MAX TEMP:  81;

WAYNE          PTCLDY    72  28  19 NW17G24   29.89R
$$

NEZ050>053-065>068-078-088>093-310100-
SOUTHEAST NEBRASKA

CITY           SKY/WX    TMP DP  RH WIND       PRES   REMARKS
LINCOLN        MOCLDY    74  27  17 NW7       29.91R
6HR MIN TEMP:  72; 6HR MAX TEMP:  79;

OMAHA EPPLEY   PTCLDY    75  31  19 W13       29.86S
6HR MIN TEMP:  70; 6HR MAX TEMP:  79;

BEATRICE       PTCLDY    75  35  22 W7        29.90S
FALLS CITY     PTCLDY    74  31  20 SW9       29.90F
6HR MIN TEMP:  71; 6HR MAX TEMP:  77;

NEBRASKA CITY  MOCLDY    70  31  23 W6        29.89S
PLATTSMOUTH    MOCLDY    74  26  17 SW9       29.88F
$$

NEZ044-045-051>053-067-310100-
OMAHA AREA

CITY           SKY/WX    TMP DP  RH WIND       PRES   REMARKS
OMAHA EPPLEY   PTCLDY    75  31  19 W13       29.86S
6HR MIN TEMP:  70; 6HR MAX TEMP:  79;

BLAIR          PTCLDY    75  26  16 W13G20    29.87S
FREMONT        PTCLDY    75  27  17 W12       29.88R
MILLARD        PTCLDY    75  32  20 W7        29.87S
OFFUTT AFB     PTCLDY    74  34  23 SW9       29.86F
PLATTSMOUTH    MOCLDY    74  26  17 SW9       29.88F
WAHOO          FAIR      74  23  15 W8        29.88S
$$


USA.gov is the U.S. government's official web portal to all federal, state and local government web resources and services.